Fort Wayne, IN

8:10 AM EDT on August 27, 2016 (GMT -0400)
Fort Wayne International

Weather History for KFWA - October, 2013

Change the Weather History Date:

Saturday, October 26, 2013

  Actual Average Record
Temperature  
Mean Temperature 44 °F 49 °F  
Max Temperature 54 °F 60 °F 84 °F (1963)
Min Temperature 34 °F 39 °F 21 °F (1942)
Degree Days  
Heating Degree Days 21 16  
Month to date heating degree days 302 310  
Since 1 July heating degree days 420 426  
Cooling Degree Days 0 0  
Month to date cooling degree days 28 8  
Year to date cooling degree days 855 808  
Moisture  
Dew Point 30 °F    
Average Humidity 64    
Maximum Humidity 82    
Minimum Humidity 46    
Precipitation  
Precipitation 0.00 in 0.08 in 1.47 in (1991)
Month to date precipitation 1.83 2.39  
Year to date precipitation 36.06 32.03  
Snow  
Snow 0.00 in 0.00 in T in (2001)
Month to date snowfall T 0.2  
Since 1 July snowfall T 0.2  
Since 1 September snowfall T 0.2  
Snow Depth 0.00 in    
Sea Level Pressure  
Sea Level Pressure 30.01 in    
Wind  
Wind Speed 14 mph (WSW)    
Max Wind Speed 30 mph    
Max Gust Speed 39 mph    
Visibility 10 miles    
Events      
T = Trace of Precipitation, MM = Missing Value Source: NWS Daily Summary

Daily Weather History Graph

Daily Weather History Graph

Search for Another Location

Airport or City:

Trip Planner

Search our weather history database for the weather conditions in past years. The results will help you decide how hot, cold, wet, or windy it might be!

Date:

Astronomy

Oct. 26, 2013 Rise Set
Actual Time 8:04 AM EDT 6:43 PM EDT
Civil Twilight 7:36 AM EDT 7:12 PM EDT
Nautical Twilight 7:04 AM EDT 7:44 PM EDT
Astronomical Twilight 6:32 AM EDT 8:16 PM EDT
Moon 12:03 AM EDT (10/26) 2:20 PM EDT (10/26)
Length of Visible Light 11h 35m
Length of Day
10h 39m
Waning Gibbous, 53% of the Moon is Illuminated
Oct 26
Waning Gibbous
Oct 26
Last Quarter
Nov 3
New
Nov 10
First Quarter
Nov 17
Full

Hourly Weather History & Observations

Time (EDT) Temp. Windchill Dew Point Humidity Pressure Visibility Wind Dir Wind Speed Gust Speed Precip Events Conditions
12:54 AM 36.0 °F 28.0 °F 26.1 °F 67% 30.19 in 10.0 mi SW 11.5 mph - N/A   Clear
1:54 AM 36.0 °F 28.0 °F 26.1 °F 67% 30.17 in 10.0 mi SW 11.5 mph - N/A   Clear
2:54 AM 36.0 °F 26.7 °F 25.0 °F 64% 30.13 in 10.0 mi SW 15.0 mph - N/A   Clear
3:54 AM 37.0 °F 28.1 °F 26.1 °F 65% 30.12 in 10.0 mi SW 15.0 mph - N/A   Mostly Cloudy
4:54 AM 37.0 °F 26.7 °F 25.0 °F 62% 30.09 in 10.0 mi SW 19.6 mph 25.3 mph N/A   Mostly Cloudy
5:54 AM 37.0 °F 28.5 °F 26.1 °F 65% 30.06 in 10.0 mi SW 13.8 mph - N/A   Mostly Cloudy
6:54 AM 37.9 °F 27.6 °F 26.1 °F 62% 30.04 in 10.0 mi SW 20.7 mph 26.5 mph N/A   Overcast
7:54 AM 39.0 °F 28.8 °F 26.1 °F 60% 30.00 in 10.0 mi SSW 21.9 mph 28.8 mph N/A   Overcast
8:54 AM 39.9 °F 30.2 °F 26.1 °F 58% 29.98 in 10.0 mi SW 20.7 mph 28.8 mph N/A   Overcast
9:54 AM 41.0 °F 30.9 °F 27.0 °F 57% 29.96 in 10.0 mi SW 24.2 mph 29.9 mph N/A   Overcast
10:54 AM 43.0 °F 34.0 °F 28.0 °F 56% 29.94 in 10.0 mi SW 21.9 mph 27.6 mph N/A   Overcast
11:54 AM 46.0 °F 38.8 °F 28.9 °F 51% 29.92 in 10.0 mi SW 18.4 mph 27.6 mph N/A   Mostly Cloudy
12:54 PM 50.0 °F - 30.9 °F 48% 29.90 in 10.0 mi WSW 15.0 mph 29.9 mph N/A   Mostly Cloudy
1:54 PM 48.9 °F - 32.0 °F 52% 29.89 in 10.0 mi WSW 17.3 mph 23.0 mph N/A   Mostly Cloudy
2:54 PM 50.0 °F - 33.1 °F 52% 29.88 in 10.0 mi WSW 15.0 mph 29.9 mph N/A   Mostly Cloudy
3:54 PM 53.1 °F - 35.1 °F 50% 29.88 in 10.0 mi WSW 16.1 mph 24.2 mph N/A   Mostly Cloudy
4:54 PM 52.0 °F - 36.0 °F 54% 29.90 in 10.0 mi West 8.1 mph - N/A   Mostly Cloudy
5:54 PM 52.0 °F - 35.1 °F 53% 29.93 in 10.0 mi NW 13.8 mph 24.2 mph N/A   Mostly Cloudy
6:54 PM 50.0 °F - 35.1 °F 57% 29.96 in 10.0 mi WNW 9.2 mph - N/A   Mostly Cloudy
7:54 PM 48.9 °F - 35.1 °F 59% 30.01 in 10.0 mi NW 6.9 mph - N/A   Overcast
8:54 PM 45.0 °F 42.6 °F 35.1 °F 68% 30.03 in 10.0 mi WNW 4.6 mph - N/A   Mostly Cloudy
9:54 PM 42.1 °F 37.7 °F 34.0 °F 73% 30.04 in 10.0 mi WNW 6.9 mph - N/A   Scattered Clouds
10:54 PM 39.0 °F 34.8 °F 33.1 °F 79% 30.07 in 10.0 mi West 5.8 mph - N/A   Partly Cloudy
11:54 PM 37.0 °F 33.3 °F 32.0 °F 82% 30.07 in 10.0 mi West 4.6 mph - N/A   Scattered Clouds